Location: LDNL
(36.4545°S, 141.6685°E)
Time: 20:19:37
(UTC+10:00)

A-11 Canister half - Pass Details

Date: 05 February 2022
Orbit: 1527 x 1682 km, 47.3° (Epoch: 20 May)

Event Time Altitude Azimuth Distance (km) Brightness Sun altitude
Rises 22:05:57 0° 296° (WNW) 4,917 12.1 -16.1°
Reaches altitude 10° 22:09:07 10° 293° (WNW) 3,941 11.6 -16.6°
Maximum altitude 22:19:18 72° 209° (SSW) 1,758 9.4 -18.3°
Drops below altitude 10° 22:29:28 10° 124° (SE) 3,932 11.0 -19.9°
Sets 22:32:38 0° 121° (ESE) 4,906 11.5 -20.4°
